Probability
32 37 44 46 49 58 67 72 75 77 74 70 70 73 72 66 58 50 45 38 32 31 32 34 35 30 23 20 21 20 19 20 20 18 16 14 13 16 19 18 13 9 10
25 27 31 33 37 43 50 56 61 61 58 55 55 57 58 54 49 42 37 31 26 25 25 28 29 25 19 17 18 17 15 15 16 14 12 11 11 13 14 14 13 12 12
12 12 14 17 20 23 27 33 38 37 36 36 35 37 38 38 36 32 28 23 19 18 20 21 21 20 16 13 14 13 12 13 13 11 9 10 11 9 9 10 11 13 14
4 4 6 8 9 10 13 19 23 23 24 25 24 24 23 23 22 22 22 19 15 14 14 15 16 17 16 13 12 12 13 15 14 12 12 13 12 8 7 8 9 11 12
3 4 4 5 4 4 6 14 21 23 25 26 25 22 19 16 15 14 15 14 11 10 10 10 12 13 13 13 12 13 16 17 17 19 20 18 14 10 7 6 7 8 7
2 3 3 3 4 5 7 16 27 33 35 36 35 32 27 21 14 10 9 9 8 7 7 8 9 9 9 10 11 12 17 19 21 26 28 26 22 17 12 8 6 6 6
1 2 4 6 9 10 13 22 34 42 43 42 41 38 31 21 11 5 4 5 5 5 5 6 6 6 5 6 8 10 14 17 20 25 30 31 31 28 23 17 10 7 7
1 2 5 8 10 12 17 24 33 39 39 37 35 32 25 14 5 1 2 3 3 3 3 3 4 4 4 4 6 8 10 13 16 19 23 28 32 32 29 25 18 12 9
0 1 3 5 6 9 13 18 22 25 27 25 22 19 16 10 5 3 2 2 3 3 2 1 1 3 3 3 3 3 5 8 12 14 17 22 25 26 27 27 22 16 12
0 0 1 2 3 5 7 8 10 12 14 14 11 9 10 10 8 6 4 4 4 3 2 1 1 2 3 2 1 0 2 4 7 9 11 15 19 20 20 21 20 17 16
0 0 0 1 1 1 2 2 3 4 5 6 4 4 6 8 8 7 5 5 4 3 2 2 1 1 2 2 1 0 0 1 3 5 6 9 13 15 15 15 15 16 18
0 0 0 0 0 0 0 1 1 1 1 1 1 1 3 5 5 4 3 3 4 4 4 4 2 1 1 2 1 0 0 0 1 1 2 4 8 10 11 11 11 13 15
0 0 0 0 0 0 0 0 0 0 0 0 0 0 1 2 2 1 1 2 3 4 5 5 4 2 1 2 2 1 1 0 0 0 1 2 5 7 8 8 8 9 10
0 0 0 0 0 0 0 0 0 0 0 0 0 0 0 0 0 0 0 1 2 3 3 4 4 3 1 1 2 3 2 0 0 0 0 1 2 4 5 5 7 8 9
0 0 0 0 0 0 0 0 0 0 0 0 0 0 0 0 0 0 0 0 0 1 1 2 3 3 2 1 1 3 2 1 0 0 0 0 1 1 1 2 4 7 9
0 0 0 0 0 0 0 0 0 0 0 0 0 0 0 0 0 0 0 0 0 0 1 1 1 2 1 0 0 1 2 2 1 1 1 0 0 0 0 0 2 3 4
0 0 0 0 0 0 0 0 0 0 0 0 0 0 0 0 0 0 0 0 0 0 0 0 0 0 0 0 0 1 2 2 2 2 1 0 0 0 1 1 0 1 1
0 0 0 0 0 0 0 0 0 0 0 0 0 0 0 0 0 0 0 0 0 0 0 0 0 0 0 0 0 0 1 1 1 1 1 1 1 1 1 1 1 0 0
0 0 0 0 0 0 0 0 0 0 0 0 0 0 0 0 0 0 0 0 0 0 0 0 0 0 0 0 0 0 0 0 1 1 0 1 1 1 1 1 1 1 1
0 0 0 0 0 0 0 0 0 0 0 0 0 0 0 0 0 0 0 0 0 0 0 0 0 0 0 0 0 0 0 0 0 1 0 0 0 0 0 0 0 0 0
0 0 0 0 0 0 0 0 0 0 0 0 0 0 0 0 0 0 0 0 0 0 0 0 0 0 0 0 0 0 0 0 0 0 0 0 0 0 0 0 0 0 0
0 0 0 0 0 0 0 0 0 0 0 0 0 0 0 0 0 0 0 0 0 0 0 0 0 0 0 0 0 0 0 0 0 0 0 0 0 0 0 0 0 0 0
0 0 0 0 0 0 0 0 0 0 0 0 0 0 0 0 0 0 0 0 0 0 0 0 0 0 0 0 0 0 0 0 0 0 0 0 0 0 0 0 0 0 0
0 0 0 0 0 0 0 0 0 0 0 0 0 0 0 0 0 0 0 0 0 0 0 0 0 0 0 0 0 0 0 0 0 0 0 0 0 0 0 0 0 0 0
0 0 0 0 0 0 0 0 0 0 0 0 0 0 0 0 0 0 0 0 0 0 0 0 0 0 0 0 0 0 0 0 0 0 0 0 0 0 0 0 0 0 0
0 0 0 0 0 0 0 0 0 0 0 0 0 0 0 0 0 0 0 0 0 0 0 0 0 0 0 0 0 0 0 0 0 0 0 0 0 0 0 0 0 0 0
Wind_Speed
7 7 8 8 8 7 7 6 5 4 3 3 3 3 3 3 3 2 2 3 4 5 4 4 4 4 4 5 6 5 5 4 4 3 4 5 6 6 5 5 5 7 8
7 7 7 7 7 6 5 4 4 4 3 3 2 2 2 3 2 2 2 3 4 4 4 3 3 3 4 5 5 5 3 3 4 3 3 3 4 5 8 6 6 6 5
8 7 6 6 6 5 4 5 4 3 3 4 3 3 2 2 2 2 2 2 3 3 3 4 3 3 3 3 5 4 4 4 3 5 4 3 2 3 4 6 6 4 3
8 7 6 5 4 4 4 3 2 2 3 4 4 5 5 4 4 3 2 3 3 3 2 3 3 3 2 2 3 3 3 3 3 3 3 2 0 1 1 2 4 5 5
7 5 5 4 3 2 2 2 2 0 2 3 4 5 5 5 5 5 5 4 3 2 1 1 2 3 3 3 3 3 2 2 3 3 2 3 2 3 2 2 3 3 4
6 4 3 3 2 2 1 1 0 1 2 3 4 5 6 6 7 7 6 5 3 2 1 1 1 2 2 3 3 3 3 3 3 3 2 2 2 2 2 3 3 4 4
5 4 4 4 3 3 2 2 2 2 3 4 4 5 6 7 8 8 6 5 4 3 2 1 0 1 2 2 2 2 3 3 3 4 3 2 3 1 1 1 2 2 2
2 2 2 2 3 3 2 2 3 3 4 4 5 5 6 6 6 7 6 6 5 5 4 2 2 2 3 3 2 1 2 2 2 4 3 3 3 2 1 1 1 1 2
1 2 3 3 4 5 4 4 4 5 5 5 6 6 7 6 7 7 7 7 6 7 5 3 3 4 3 3 3 2 3 2 2 2 2 2 2 2 2 1 2 2 2
4 4 5 5 5 5 5 6 6 6 6 7 6 9 6 7 7 7 8 7 7 7 7 7 6 6 5 5 4 4 4 3 3 2 2 2 2 1 1 1 2 2 2
7 7 7 7 7 8 8 7 7 7 7 7 7 7 7 7 7 7 7 7 7 7 7 7 7 7 7 7 6 6 5 5 4 4 4 4 3 2 2 1 2 2 2
8 8 9 9 9 9 9 9 8 8 8 8 7 7 7 8 8 9 8 8 8 8 8 8 8 9 9 8 8 8 7 7 6 6 5 5 4 4 3 2 3 3 2
8 9 8 8 9 9 9 9 8 9 9 9 9 8 8 8 9 9 9 8 8 8 8 8 8 8 8 8 8 8 8 8 7 7 6 6 6 5 4 4 3 3 3
8 8 7 7 8 8 8 10 9 10 10 9 10 9 9 9 9 10 9 9 9 9 9 8 8 8 8 9 9 8 9 9 8 8 7 7 6 6 6 5 5 4 4
9 9 8 8 8 9 8 9 9 9 9 10 10 9 10 10 10 10 10 10 9 11 9 9 9 9 9 10 10 9 10 10 10 9 8 8 9 8 7 6 5 5 4
11 11 11 10 10 10 10 10 10 9 10 11 11 11 10 10 10 10 10 10 10 10 9 9 10 10 11 11 9 7 7 7 9 9 8 8 9 10 11 9 7 6 6
11 11 11 10 9 10 9 10 11 10 11 11 12 11 11 11 11 13 12 11 10 10 10 10 10 10 10 12 10 10 7 7 7 8 8 9 10 10 8 10 10 8 8
11 11 11 11 10 10 10 10 12 12 12 12 12 11 11 12 12 11 11 11 10 9 9 10 10 9 11 12 11 10 8 8 8 7 8 8 7 8 8 8 9 8 8
10 10 11 11 10 10 11 12 13 13 13 13 12 13 13 13 13 13 12 11 10 10 9 10 10 10 9 10 10 10 6 7 8 8 8 8 8 9 10 8 7 7 7
9 10 10 11 10 10 10 12 13 13 13 14 14 13 13 13 14 13 12 10 9 9 10 10 9 9 9 9 11 11 7 7 8 7 8 10 9 11 11 8 7 7 6
10 10 10 10 9 10 10 12 13 13 13 14 14 13 13 13 13 11 10 10 9 9 9 10 9 8 9 9 12 13 8 7 7 7 7 7 11 13 13 10 7 6 5
11 11 10 9 9 9 10 12 12 12 13 14 14 14 13 13 12 11 10 9 9 9 8 8 8 6 6 7 9 13 13 8 6 6 5 5 11 14 14 10 7 8 6
10 10 11 11 10 10 10 12 12 12 13 14 14 14 14 11 11 10 10 8 7 6 6 5 6 5 4 4 8 11 12 11 6 3 2 4 9 11 10 11 10 8 5
10 10 11 11 11 11 11 10 11 11 12 14 14 13 12 11 10 7 7 6 6 5 5 5 4 4 2 2 3 5 6 8 7 5 4 5 8 8 7 8 7 6 6
9 9 10 10 11 11 11 11 11 11 13 14 13 12 11 10 9 8 6 6 4 3 5 5 4 3 2 1 1 2 4 5 5 5 4 4 5 6 6 6 7 8 8
9 9 10 11 11 11 11 11 10 11 12 12 12 10 9 8 8 7 6 4 4 3 3 4 4 2 1 0 0 2 2 3 3 3 4 5 6 7 7 7 7 8 8
Wind_Direction
93 85 79 82 82 76 73 68 60 50 22 19 353 347 345 336 330 324 346 327 310 300 289 284 278 270 256 245 243 238 227 226 228 236 253 238 220 206 206 205 213 204 199
112 104 105 98 90 84 82 83 67 47 23 14 332 304 305 296 307 339 334 320 312 308 299 295 284 276 266 263 259 242 225 233 218 213 234 234 217 210 206 194 205 213 193
128 123 113 106 100 90 74 69 55 37 16 348 327 334 320 304 329 333 331 340 323 310 306 308 294 281 267 257 256 242 220 231 227 214 219 226 211 194 195 196 191 179 176
133 133 132 123 116 118 112 108 86 33 4 342 347 338 325 329 335 332 334 334 316 306 305 316 323 314 298 275 262 242 232 240 249 244 240 251 344 225 169 203 177 171 180
138 137 136 133 131 146 148 153 152 88 337 327 320 320 321 326 326 327 317 310 294 276 289 333 348 349 332 325 320 315 263 245 248 254 241 237 227 224 200 199 179 182 182
153 158 160 164 195 233 268 290 134 290 293 298 304 306 307 308 307 303 297 294 285 280 268 268 18 346 337 336 331 320 284 272 277 278 267 244 224 222 215 189 192 192 189
169 178 197 216 224 241 253 276 293 289 287 289 297 302 303 300 288 282 285 289 292 292 287 321 41 298 301 305 315 323 303 288 282 278 274 271 266 256 251 217 214 202 181
164 209 245 253 267 285 304 309 306 301 295 289 289 287 287 283 286 298 311 308 301 294 279 260 241 246 254 269 281 285 290 296 293 280 281 276 279 299 293 264 244 224 213
320 305 312 316 318 325 334 337 331 320 310 300 295 284 276 281 288 291 287 282 281 287 293 292 269 251 244 246 247 250 252 252 258 275 289 287 287 292 295 297 290 235 218
337 338 336 343 353 351 353 349 340 331 325 316 303 303 303 298 289 286 284 282 279 278 277 269 261 251 239 233 232 234 237 235 229 229 243 260 266 276 283 274 280 280 247
347 345 351 2 359 352 345 345 341 333 325 317 309 305 301 297 293 285 278 277 274 271 269 266 261 253 241 230 225 230 230 232 232 233 227 227 235 244 254 261 260 264 270
348 352 356 357 352 345 341 336 332 325 321 318 315 311 310 307 303 301 298 296 290 281 274 265 260 256 252 235 225 227 228 224 223 223 223 224 222 222 231 232 236 240 257
355 356 360 354 345 341 336 329 326 323 321 319 315 313 312 310 305 301 298 295 291 287 282 276 271 263 258 248 233 226 223 223 222 219 218 217 210 213 214 220 227 225 228
357 357 358 347 343 335 330 325 322 321 319 318 315 310 308 305 302 300 296 292 288 286 281 276 272 268 264 257 244 232 226 222 219 214 214 218 214 212 208 214 214 214 215
352 353 348 341 336 332 328 323 323 323 320 315 311 309 307 304 302 300 297 294 290 288 286 282 276 269 266 260 252 239 234 223 218 213 211 216 215 216 213 216 203 201 204
350 345 340 338 334 330 327 328 324 323 321 316 311 307 304 303 300 297 293 290 288 288 285 281 278 274 269 270 275 260 251 232 218 213 210 219 218 212 207 206 193 189 202
345 342 339 333 330 329 332 329 327 325 319 312 309 310 310 308 306 305 303 298 293 288 283 278 274 268 266 269 269 261 256 253 232 215 205 217 218 203 205 206 204 205 213
346 341 333 329 330 333 334 332 327 321 316 314 315 316 315 312 308 304 300 296 291 287 281 277 272 265 260 254 249 249 244 250 241 222 209 211 223 209 202 205 205 208 209
344 334 329 329 333 335 337 329 321 320 320 321 321 319 315 311 308 305 301 298 292 285 279 276 269 263 259 246 239 233 238 239 241 231 220 212 215 207 197 202 207 211 212
339 332 332 333 333 337 333 325 322 324 324 323 319 317 313 309 306 302 299 294 289 284 282 277 269 262 258 241 225 219 232 232 231 226 224 220 213 201 196 202 208 211 214
336 338 337 334 335 334 331 324 324 327 327 321 318 315 311 307 302 300 298 296 292 287 283 281 272 261 252 239 221 213 223 227 224 223 219 215 201 194 194 201 210 212 210
339 341 336 333 335 336 332 326 326 327 325 321 317 315 312 310 310 307 302 299 296 291 286 282 277 264 251 235 220 211 217 228 234 230 223 207 192 189 190 198 203 193 194
340 338 335 332 336 337 335 327 327 326 324 321 318 315 314 312 309 306 306 305 301 294 293 290 287 278 257 228 212 209 215 223 234 239 213 185 185 184 190 204 197 188 201
337 338 336 333 335 335 333 330 327 327 325 322 318 316 315 314 314 309 306 307 307 307 307 305 302 299 285 244 204 200 205 210 221 227 200 179 185 194 196 186 194 204 216
337 338 336 334 334 335 333 331 330 330 325 321 317 317 316 314 312 310 309 309 318 315 307 313 315 319 314 322 264 214 203 197 199 190 183 189 188 199 201 196 192 202 211
337 337 337 336 334 334 332 332 333 330 324 319 319 317 316 316 314 313 313 307 297 292 282 282 294 311 328 289 128 144 154 159 164 186 198 203 207 209 208 205 204 204 208